User: anonymous   Login
Location: Kikino
(54.4440°N, 112.0940°W)
Time: 11:22:12
(UTC+00:00)
Language:

Transit 4A - Orbit

View from above orbital plane
View from above orbital plane
View from above satellite
View from above satellite

Ground track
Ground track

The orbit data is extracted from the following two-line orbital elements,

1 00116U 61015A   24139.85673547  .00000273  00000-0  26828-3 0  9996
2 00116  66.8097 308.4926 0068557  84.9639 275.9262 13.92040267191006
Epoch (UTC): 18 May 2024 20:33:41
Eccentricity: 0.0068557
inclination: 66.8097°
perigee height: 871 km
apogee height: 971 km
right ascension of ascending node: 308.4926°
argument of perigee: 84.9639°
revolutions per day: 13.92040267
mean anomaly at epoch: 275.9262°
orbit number at epoch: 19100

The dashed part of the orbit path shows where the satellite is in the earth's shadow,  

DLR